TimeCDT,TemperatureF,Dew PointF,Humidity,Sea Level PressureIn,VisibilityMPH,Wind Direction,Wind SpeedMPH,Gust SpeedMPH,PrecipitationIn,Events,Conditions,WindDirDegrees,DateUTC
12:15 AM,80.6,71.6,74,29.86,10.0,East,9.2,-,N/A,,Clear,100,2013-05-23 05:15:00
12:35 AM,79.9,71.6,76,29.86,10.0,ESE,9.2,-,N/A,,Clear,110,2013-05-23 05:35:00
12:55 AM,79.7,71.2,75,29.86,10.0,ESE,9.2,-,N/A,,Mostly Cloudy,120,2013-05-23 05:55:00
1:15 AM,79.7,71.4,76,29.85,10.0,ESE,9.2,-,N/A,,Overcast,110,2013-05-23 06:15:00
1:35 AM,79.3,71.1,76,29.85,10.0,ESE,8.1,-,N/A,,Overcast,110,2013-05-23 06:35:00
1:55 AM,79.0,70.9,76,29.84,10.0,ESE,9.2,-,N/A,,Overcast,120,2013-05-23 06:55:00
2:15 AM,78.8,70.7,76,29.84,10.0,ESE,9.2,18.4,N/A,,Overcast,120,2013-05-23 07:15:00
2:35 AM,78.8,70.7,76,29.84,7.0,SE,9.2,-,N/A,,Overcast,130,2013-05-23 07:35:00
2:55 AM,78.4,70.3,76,29.83,10.0,ESE,10.4,17.3,N/A,,Overcast,120,2013-05-23 07:55:00
3:15 AM,78.3,69.8,75,29.83,10.0,ESE,10.4,-,N/A,,Overcast,120,2013-05-23 08:15:00
3:35 AM,77.9,69.8,76,29.83,7.0,ESE,10.4,-,N/A,,Overcast,120,2013-05-23 08:35:00
3:55 AM,77.4,69.8,77,29.83,10.0,ESE,10.4,-,N/A,,Mostly Cloudy,110,2013-05-23 08:55:00
4:15 AM,76.5,69.8,80,29.83,7.0,East,10.4,-,N/A,,Scattered Clouds,100,2013-05-23 09:15:00
4:35 AM,76.1,69.8,81,29.83,7.0,East,9.2,-,N/A,,Scattered Clouds,100,2013-05-23 09:35:00
4:55 AM,75.9,69.4,80,29.83,7.0,ESE,5.8,-,N/A,,Mostly Cloudy,110,2013-05-23 09:55:00
5:15 AM,75.4,69.8,83,29.84,7.0,SE,4.6,-,N/A,,Overcast,130,2013-05-23 10:15:00
5:35 AM,75.9,69.8,81,29.85,7.0,ESE,5.8,-,N/A,,Overcast,120,2013-05-23 10:35:00
5:55 AM,76.1,69.4,80,29.85,7.0,SE,8.1,-,N/A,,Overcast,130,2013-05-23 10:55:00
6:15 AM,76.1,69.4,80,29.86,7.0,ESE,5.8,-,N/A,,Overcast,120,2013-05-23 11:15:00
6:35 AM,76.3,69.3,79,29.87,7.0,SE,3.5,-,N/A,,Overcast,130,2013-05-23 11:35:00
6:55 AM,76.6,69.3,78,29.87,10.0,ESE,8.1,-,N/A,,Overcast,110,2013-05-23 11:55:00
7:15 AM,76.6,69.3,78,29.89,7.0,ESE,5.8,-,N/A,,Overcast,110,2013-05-23 12:15:00
7:35 AM,77.0,69.3,77,29.90,7.0,ESE,5.8,-,N/A,,Overcast,110,2013-05-23 12:35:00
7:55 AM,77.2,69.3,76,29.91,7.0,East,5.8,-,N/A,,Overcast,100,2013-05-23 12:55:00
8:15 AM,77.4,69.1,76,29.91,7.0,East,6.9,-,N/A,,Overcast,100,2013-05-23 13:15:00
8:35 AM,77.9,69.1,74,29.91,7.0,East,8.1,-,N/A,,Overcast,100,2013-05-23 13:35:00
8:55 AM,77.9,69.1,74,29.92,7.0,East,9.2,-,N/A,,Overcast,90,2013-05-23 13:55:00
9:15 AM,78.4,68.9,72,29.92,7.0,East,8.1,-,N/A,,Overcast,90,2013-05-23 14:15:00
9:35 AM,79.2,69.3,72,29.93,7.0,ESE,8.1,-,N/A,,Overcast,110,2013-05-23 14:35:00
9:55 AM,79.7,69.3,70,29.93,7.0,East,9.2,-,N/A,,Overcast,90,2013-05-23 14:55:00
10:15 AM,80.2,68.9,68,29.93,7.0,ESE,10.4,-,N/A,,Overcast,110,2013-05-23 15:15:00
10:35 AM,81.1,68.9,66,29.93,7.0,ESE,6.9,-,N/A,,Overcast,120,2013-05-23 15:35:00
10:55 AM,82.6,69.8,65,29.93,7.0,East,6.9,-,N/A,,Overcast,100,2013-05-23 15:55:00
11:15 AM,82.8,69.6,64,29.93,7.0,ESE,6.9,-,N/A,,Overcast,110,2013-05-23 16:15:00
11:35 AM,82.9,69.8,64,29.93,7.0,ESE,8.1,-,N/A,,Overcast,120,2013-05-23 16:35:00
11:55 AM,84.2,69.4,61,29.93,7.0,SE,10.4,-,N/A,,Overcast,130,2013-05-23 16:55:00
12:15 PM,84.4,68.5,59,29.92,7.0,ESE,10.4,-,N/A,,Overcast,120,2013-05-23 17:15:00
12:35 PM,85.1,68.5,57,29.92,7.0,SE,6.9,-,N/A,,Overcast,130,2013-05-23 17:35:00
12:55 PM,86.5,68.7,55,29.92,7.0,ESE,10.4,-,N/A,,Overcast,120,2013-05-23 17:55:00
1:15 PM,87.1,68.9,55,29.91,7.0,ESE,9.2,-,N/A,,Overcast,120,2013-05-23 18:15:00
1:35 PM,87.8,68.2,52,29.91,7.0,SE,8.1,-,N/A,,Overcast,140,2013-05-23 18:35:00
1:55 PM,88.2,68.5,52,29.91,7.0,ESE,12.7,16.1,N/A,,Mostly Cloudy,110,2013-05-23 18:55:00
2:15 PM,89.1,68.7,51,29.90,7.0,SE,8.1,-,N/A,,Mostly Cloudy,140,2013-05-23 19:15:00
2:35 PM,88.9,68.5,51,29.90,7.0,ESE,10.4,17.3,N/A,,Mostly Cloudy,120,2013-05-23 19:35:00
2:55 PM,90.7,68.7,48,29.89,7.0,ESE,9.2,16.1,N/A,,Mostly Cloudy,110,2013-05-23 19:55:00
3:15 PM,90.9,68.2,47,29.87,7.0,ESE,11.5,-,N/A,,Scattered Clouds,110,2013-05-23 20:15:00
3:35 PM,91.8,68.2,46,29.86,7.0,East,8.1,-,N/A,,Mostly Cloudy,100,2013-05-23 20:35:00
3:55 PM,92.5,66.7,43,29.86,7.0,SE,10.4,16.1,N/A,,Scattered Clouds,130,2013-05-23 20:55:00
4:15 PM,92.8,66.2,41,29.85,7.0,SE,10.4,-,N/A,,Scattered Clouds,140,2013-05-23 21:15:00
4:35 PM,92.5,66.0,42,29.84,7.0,ESE,12.7,18.4,N/A,,Mostly Cloudy,110,2013-05-23 21:35:00
4:55 PM,93.4,66.7,41,29.84,7.0,ESE,15.0,19.6,N/A,,Scattered Clouds,110,2013-05-23 21:55:00
5:15 PM,92.1,66.7,43,29.83,7.0,SE,11.5,20.7,N/A,,Scattered Clouds,130,2013-05-23 22:15:00
5:35 PM,93.0,66.9,42,29.82,7.0,ESE,16.1,19.6,N/A,,Scattered Clouds,110,2013-05-23 22:35:00
5:55 PM,92.8,66.2,41,29.82,7.0,SE,13.8,19.6,N/A,,Scattered Clouds,130,2013-05-23 22:55:00
6:15 PM,92.7,66.4,42,29.81,7.0,ESE,10.4,21.9,N/A,,Clear,110,2013-05-23 23:15:00
6:35 PM,92.5,65.7,41,29.80,7.0,SE,15.0,23.0,N/A,,Scattered Clouds,130,2013-05-23 23:35:00
6:55 PM,91.9,66.4,43,29.80,7.0,SE,16.1,24.2,N/A,,Scattered Clouds,130,2013-05-23 23:55:00
7:15 PM,91.4,66.2,43,29.80,7.0,ESE,13.8,19.6,N/A,,Scattered Clouds,120,2013-05-24 00:15:00
7:35 PM,90.0,65.8,45,29.80,7.0,ESE,15.0,19.6,N/A,,Clear,120,2013-05-24 00:35:00
7:55 PM,89.2,66.0,46,29.81,7.0,SE,16.1,23.0,N/A,,Clear,130,2013-05-24 00:55:00
8:15 PM,88.7,66.2,47,29.81,7.0,ESE,13.8,20.7,N/A,,Clear,120,2013-05-24 01:15:00
8:35 PM,87.8,67.1,50,29.82,7.0,SE,12.7,17.3,N/A,,Clear,130,2013-05-24 01:35:00
8:55 PM,86.9,67.3,52,29.83,7.0,ESE,9.2,-,N/A,,Clear,120,2013-05-24 01:55:00
9:15 PM,86.0,67.6,54,29.84,7.0,North,-9999.0,-,N/A,,Clear,0,2013-05-24 02:15:00
9:35 PM,85.3,68.0,56,29.85,7.0,ESE,8.1,-,N/A,,Clear,120,2013-05-24 02:35:00
9:55 PM,84.6,68.4,58,29.86,7.0,ESE,9.2,-,N/A,,Clear,120,2013-05-24 02:55:00
10:15 PM,84.2,68.9,60,29.89,7.0,ESE,10.4,-,N/A,,Clear,110,2013-05-24 03:15:00
10:35 PM,84.2,68.9,60,29.90,7.0,ESE,9.2,-,N/A,,Clear,120,2013-05-24 03:35:00
10:55 PM,83.3,69.1,62,29.91,7.0,ESE,12.7,-,N/A,,Clear,110,2013-05-24 03:55:00
11:15 PM,82.8,69.3,64,29.92,7.0,East,10.4,17.3,N/A,,Clear,100,2013-05-24 04:15:00
11:35 PM,82.4,69.6,65,29.93,7.0,East,10.4,-,N/A,,Clear,100,2013-05-24 04:35:00
11:55 PM,81.7,69.6,67,29.94,7.0,ESE,11.5,-,N/A,,Clear,110,2013-05-24 04:55:00